Other Public Products
Issued by NWS Grand Forks, ND

Home | Current Version | Previous Version | Graphics & Text | Print | Product List | Glossary On
Versions: 1 2 3 4 5 6 7 8 9 10 11 12 13 14 15 16 17 18 19 20 21 22 23 24 25 26 27 28 29 30 31 32 33 34 35 36 37 38 39 40 41 42 43 44 45 46 47 48 49 50
785
FPUS83 KFGF 012031
OPUFGF
PRAIRIE TO PINES WEATHER ROUNDUP
NATIONAL WEATHER SERVICE EASTERN NORTH DAKOTA/GRAND FORKS ND
300 PM CDT SUN MAY 01 2016

 **SATELLITE DATA USED TO AUGMENT SKY COVER AT AUTOMATED STATIONS**
 *****  WEATHER ACROSS EASTERN NORTH DAKOTA  *****

CITY           SKY/WX    TMP DP  RH WIND       PRES   REMARKS
GRAND FORKS    SUNNY     64  29  26 VRB6      30.20F
GRAND FORKS AF SUNNY     62  26  25 VRB2      30.21F
GRAND CITY NWS NOT AVBL
BUXTON           N/A     65  31  28 N5G16       N/A
DEVILS LAKE    SUNNY     60  28  29 S13       30.22F
FARGO          SUNNY     66  28  24 N15       30.19F
WAHPETON ARPT  CLEAR     61  28  29 N9G17     30.19F
$$

 *****  WEATHER ACROSS CENTRAL AND WESTERN NORTH DAKOTA  *****

CITY           SKY/WX    TMP DP  RH WIND       PRES   REMARKS
JAMESTOWN      SUNNY     61  29  29 N10       30.21F
BISMARCK       SUNNY     63  29  27 MISG      30.25F
MINOT          SUNNY     67  23  19 VRB3      30.23F
MINOT AFB      SUNNY     62  28  27 VRB1      30.21F
GARRISON         N/A     61  27  27 S12G18    30.24F
WILLISTON      SUNNY     64  27  24 VRB3      30.24F
DICKINSON      SUNNY     60  27  28 VRB6      30.23F
HETTINGER      MOSUNNY   60  29  30 N8        30.26F
$$

 *****  OTHER OBSERVATIONS NORTHEAST NORTH DAKOTA  *****

CITY           SKY/WX    TMP DP  RH WIND       PRES   REMARKS
WALHALLA       FAIR      63  30  29 NE6       30.20F
LANGDON        FAIR      64  27  24 CALM      30.20F
CAVALIER       FAIR      63  28  27 NE6       30.20F
GRAFTON        FAIR      63  27  25 VRB6      30.22F
CANDO          FAIR      63  23  22 SW5       30.23F
FORT TOTTEN      N/A     61  26  26 W6        29.95S
ROLLA          FAIR      63  23  22 NE5       30.22F
RUGBY          FAIR      63  27  25 S8G16     30.21F
 ***** THE ABOVE OBSERVATIONS ARE NON NWS ARE NOT QUALITY
        CONTROLLED AND MAY MIS-REPORT RAIN FOR SNOW...
$$

 *****  OTHER OBSERVATIONS SOUTHEAST NORTH DAKOTA *****

CITY           SKY/WX    TMP DP  RH WIND       PRES   REMARKS
COOPERSTOWN    NOT AVBL
VALLEY CITY    FAIR      63  30  29 NW6G17    30.22F
OAKES            N/A    N/A N/A N/A MISG        N/A
GWINNER        FAIR      61  32  33 N5        30.21F
SHEYENNE NWR     N/A     62  31  31 N5        29.95S
BUFFALO          N/A     63  26  25 N8          N/A
WYNDMERE         N/A     63  32  31 N12         N/A
 ***** THE ABOVE OBSERVATIONS ARE NON NWS ARE NOT QUALITY
       CONTROLLED AND MAY MIS-REPORT RAIN FOR SNOW...
$$

  *****  WEATHER ACROSS NORTHERN MINNESOTA  *****

CITY           SKY/WX    TMP DP  RH WIND       PRES   REMARKS
FLAG ISLAND    SUNNY     52  37  58 S6        30.20F
WARROAD        SUNNY     55  30  38 E7        30.22F
ROSEAU         SUNNY     61  34  36 E7        30.20F
HALLOCK        SUNNY     64  19  17 W7        30.19F
THF RVR FALLS  SUNNY     61  28  29 NE6       30.20F
HALSTAD        NOT AVBL
FOSSTON        SUNNY     63  28  27 NE9       30.19F
BAUDETTE       SUNNY     59  26  28 NW14      30.20F
WASKISH        SUNNY     61  28  29 N5        30.18F
CROOKSTON      SUNNY     63  27  25 E6        30.20F
$$
  *****  WEATHER ACROSS CENTRAL AND WEST MINNESOTA  *****

CITY           SKY/WX    TMP DP  RH WIND       PRES   REMARKS
BEMIDJI        SUNNY     60  32  33 N9        30.17F
PARK RAPIDS    SUNNY     60  27  28 E10G16    30.17F
WADENA         SUNNY     61  34  36 E9G16     30.16F
DETROIT LAKES  SUNNY     59  30  33 CALM      30.18F
MOORHEAD       SUNNY     63  28  27 N14       30.19F
FERGUS FALLS   SUNNY     61  32  33 NE6       30.16S
ELBOW LAKE     FAIR      58  31  36 NE8G21    30.18F
MORRIS MN      SUNNY     63  32  31 N12       30.16F
STAPLES        SUNNY     61  25  25 E6G16     30.16F
WHEATON        SUNNY     63  36  36 N6G20     30.20S
$$
  *****  WEATHER ELSEWHERE ACROSS MINNESOTA  *****

CITY           SKY/WX    TMP DP  RH WIND       PRES   REMARKS
DULUTH         MOSUNNY   53  34  48 E12       30.18F
INTRNTL FALLS  SUNNY     57  29  34 N12       30.20F
ELY            SUNNY     57  28  33 CALM      30.16F
CLOQUET        SUNNY     54  30  40 E10G18    30.17F
BRAINERD       SUNNY     59  29  31 E8        30.17F
HIBBING        SUNNY     56  29  35 E8        30.16F
ALEXANDRIA     SUNNY     60  29  30 NE12G20   30.17F
SAINT CLOUD    SUNNY     60  32  34 NE13G21   30.14F
MINNEAPOLIS    PTSUNNY   60  35  39 NE8G18    30.11F
$$

  *****  WEATHER ACROSS SOUTH DAKOTA  *****

CITY           SKY/WX    TMP DP  RH WIND       PRES   REMARKS
SIOUX FALLS    PTSUNNY   54  38  54 NE9       30.17R
BROOKINGS      SUNNY     56  33  42 NE12G17   30.17S
WATERTOWN      SUNNY     59  32  36 NE14G24   30.18F
HURON          SUNNY     59  32  36 NE15G23   30.21S
SISSETON         N/A     61  30  31 NE12      30.19F
ABERDEEN       SUNNY     61  32  33 NE9       30.22F
MITCHELL       MOSUNNY   57  38  48 N10       30.21S
PIERRE         MOSUNNY   59  33  37 MISG      30.24F
MOBRIDGE       SUNNY     63  32  31 N10       30.22F
RAPID CITY     SUNNY     56  31  38 NW10G17   30.27F
$$

  *****  SOME WEATHER IN NEARBY STATES *****

CITY           SKY/WX    TMP DP  RH WIND       PRES   REMARKS
GLASGOW MT     SUNNY     64  29  26 N9        30.26F
GREAT FALLS MT SUNNY     58  29  33 CALM      30.26F
CHEYENNE WY    PTSUNNY   38  23  55 N12G18    30.28F
SCOTTSBLUFF NE MOSUNNY   50  28  42 N14       30.28F
OMAHA NE       LGT RAIN  49  43  80 N18       30.12R
DES MOINES IA  LGT RAIN  48  44  86 N9        30.06R
DAVENPORT IA   CLOUDY    50  46  86 NE10      30.00S
CHICAGO IL     CLOUDY    48  44  86 NE10      30.00S
EAU CLAIRE WI  PTSUNNY   63  30  28 E8G18     30.06F
LA CROSSE WI   CLOUDY    56  38  50 NE8       30.06F
$$

  *****  SOME NATIONAL WEATHER *****

CITY           SKY/WX    TMP DP  RH WIND       PRES   REMARKS
LA GUARDIA NY  CLOUDY    50  42  74 SE10G16   30.14F
RALEIGH NC     PTSUNNY   75  64  69 SW12      30.02F
ATLANTA GA     CLOUDY    82  63  52 SW8       30.00F
NEW ORLEANS LA TSTM      71  68  90 SE8       29.99S FOG
OKLAHOMA CITY  MOSUNNY   65  46  50 N16       30.07F
ALBUQUERQUE NM PTSUNNY   52  29  41 E30G44    30.09R
SALT LAKE CITY PTSUNNY   61  23  23 E16G24    30.04F
LOS ANGELES CA MOSUNNY   69  53  56 W10       29.93S
BOISE ID       SUNNY     66  37  34 VRB7      30.10F
SEATTLE WA     SUNNY     72  47  40 N14       30.09F
$$

*** WEATHER ACROSS MANITOBA...SASKATCHEWAN AND ONTARIO ***
                ***ONTARIO***

CITY           SKY/WX    TMP DP  RH WIND       PRES   REMARKS
GERALDTON      CLOUDY    46  32  57 SE6       30.22F
THUNDER BAY    MOSUNNY   55  34  44 E14       30.19F
SIOUX LOOKOUT  MOSUNNY   55  28  35 W3        30.19F
TORONTO        DRIZZLE   46  45  93 E10       29.99R FOG
BIG TROUT LK   MOSUNNY   55  19  24 S6        30.16F
PICKLE LAKE    MOSUNNY   57  27  30 VRB3      30.16F
DRYDEN         SUNNY     59  27  29 VRB3      30.19F
KENORA         SUNNY     61  27  27 VRB5      30.19F
$$
                *** MANITOBA***

CITY           SKY/WX    TMP DP  RH WIND       PRES   REMARKS
BRANDON        MOSUNNY   64  25  22 SW8G17    30.21F
DAUPHIN        MOSUNNY   70  28  21 W14       30.16F
ISLAND LAKE    PTSUNNY   64  28  25 VRB2      30.12F
PILOT MOUND      N/A     63  25  23 E5          N/A
THE PAS        PTSUNNY   48  37  66 N12G23    30.09F
THOMPSON       PTSUNNY   66  32  28 S10G17    30.01F
WINNIPEG       MOSUNNY   64  30  27 VRB2      30.19F
LYNN LAKE      CLOUDY    54  41  62 NW10G17   30.03S
CHURCHILL      PTSUNNY   50  36  57 S9        29.99F
GILLAM         PTSUNNY   70  28  21 S8G18     30.02F
$$
                ***SASKATCHEWAN***

CITY           SKY/WX    TMP DP  RH WIND       PRES   REMARKS
ESTEVAN        PTSUNNY   68  28  22 VRB8      30.21F
KINDERSLEY     MOSUNNY   68  32  26 W18       30.17F
LLOYDMINSTER   MOSUNNY   72  30  21 SW17      30.11F
PRINCE ALBERT  MOSUNNY   73  30  20 NW14G26   30.06F
REGINA         PTSUNNY   70  34  26 W18       30.17F
YORKTON        SUNNY     68  27  21 W18       30.14F   C1F1C2F2C3F3C4F4C5F5C6F6C7F7C8F8C9F9CaFaCbFbCcFcCdFdCe!



USA.gov is the U.S. government's official web portal to all federal, state and local government web resources and services.